Tracking 22130 objects as of 21-Jan-2021
HD Live streaming from Space Station
objects crossing your sky now

STARLINK-1849

Track STARLINK-1849 now!
10-day predictions
STARLINK-1849 is classified as:


NORAD ID: 47137
Int'l Code: 2020-088R
Perigee: 385.9 km
Apogee: 387.7 km
Inclination: 53.1 °
Period: 92.1 minutes
Semi major axis: 6757 km
RCS: Unknown
Launch date: November 25, 2020
Source: United States (US)
Launch site: AIR FORCE EASTERN TEST RANGE (AFETR)
aabbcc
Your satellite tracking list
Your tracking list is empty




NASA's NSSDC Master Catalog

Two Line Element Set (TLE):
1 47137U 20088R   21021.83334491 -.00099054  00000-0 -10883-2 0  9992
2 47137  53.0555  69.6637 0001288  37.9804 171.5092 15.62773996  9845
Source of the keplerian elements: AFSPC